Location: Gairloch Mountain Observatory
(46.1383°N, 60.9640°W)
Time: 17:52:08
(UTC-03:00)

Daily predictions for brighter satellites

Satellite Brightness Start Highest point End
(mag) Time Altitude Azimuth Time Altitude Azimuth Time Altitude Azimuth
Cosmos 2123 Rocket 4.1 19:41:43 10° N 19:47:59 58° ENE 19:54:09 10° SSE
SeaSat 1 2.5 19:46:11 10° SSE 19:51:07 81° ENE 19:56:05 10° NNW
Cosmos 1674 4.3 19:50:41 10° NNE 19:53:16 17° ENE 19:55:52 10° ESE
Cosmos 1937 Rocket 3.5 19:49:14 10° SSW 19:54:30 85° ESE 19:59:51 10° NNE
HJ-1C 3.4 19:53:26 10° SSE 19:56:49 69° ENE 20:00:14 10° N
Cosmos 482 Debris 4.3 19:56:59 10° NW 19:58:36 21° NNE 20:00:05 10° ENE
RESURS DK-1 2.9 19:57:19 10° NW 20:01:26 63° WSW 20:05:30 10° SSE
SL-27 R/B 3.0 19:58:09 10° NNW 20:01:42 64° WSW 20:05:17 10° S
In-Cosmos 22 4.1 19:57:52 10° N 20:03:11 66° ENE 20:08:25 10° SSE
Cosmos 1818 3.6 20:02:12 10° NNW 20:07:41 71° NE 20:13:05 10° SE
CZ-2D R/B 3.5 20:05:43 10° SSE 20:09:27 49° ENE 20:13:14 10° N
Cosmos 1844 Rocket 3.5 20:04:01 10° SW 20:09:34 57° WNW 20:15:09 10° NNE
Cosmos 1805 3.5 20:10:12 10° SSE 20:13:55 45° E 20:17:41 10° NNE
Cosmos 1269 Rocket 4.3 20:09:18 10° NNW 20:14:28 51° ENE 20:19:35 10° SE
Timation 2 Rocket 4.3 20:08:22 10° NNW 20:14:33 48° NE 20:20:24 10° SE
ALOS 2.7 20:11:02 10° S 20:15:41 68° WSW 20:20:23 10° NNW
Meteor 1-22 Rocket 4.5 20:10:23 10° S 20:16:16 86° W 20:22:23 10° N
COSMOS 2487 3.2 20:12:57 10° N 20:16:18 36° ENE 20:19:17 12° SE
Cosmos 1833 Rocket 3.0 20:13:00 10° NNW 20:18:29 50° ENE 20:23:54 10° SE
Resurs 1-3 3.5 20:14:47 10° SSE 20:19:09 76° ENE 20:23:33 10° N
Cosmos 468 4.5 20:15:51 10° NNW 20:21:06 80° ENE 20:26:21 10° SSE
FENGYUN 3A 4.1 20:16:58 10° S 20:22:20 66° WSW 20:27:44 10° NNW
Cosmos 1437 Rocket 4.3 20:18:44 10° SW 20:22:34 42° WNW 20:26:29 10° N
Cosmos 1408 Rocket 4.0 20:21:42 10° N 20:26:00 43° ENE 20:30:15 10° SSE
Cosmos 1447 Rocket 4.5 20:20:02 10° N 20:26:08 64° ENE 20:32:14 10° SSE
Meteor 1-4 Rocket 2.7 20:22:56 10° S 20:26:16 46° E 20:29:38 10° NNE
Cosmos 2278 Rocket 2.2 20:20:51 10° SSW 20:26:33 89° ESE 20:32:16 10° NNE
Cosmos 1470 3.7 20:26:35 10° SSE 20:29:57 27° E 20:33:20 10° NNE
USA 215 4.1 20:25:02 10° ENE 20:30:29 27° SE 20:35:52 10° S
Cosmos 372 Rocket 4.3 20:28:06 10° S 20:32:50 40° ESE 20:37:39 10° NE
Cosmos 2098 Rocket 4.4 20:26:43 10° S 20:33:55 66° E 20:41:26 10° NNE
Cosmos 1340 Rocket 3.6 20:30:42 10° N 20:34:23 33° ENE 20:36:28 20° ESE
Cosmos 1544 3.0 20:30:54 10° S 20:34:32 81° E 20:38:14 10° N
Spot 1 4.3 20:30:34 10° SSE 20:35:13 69° ENE 20:40:09 10° N
Cosmos 2173 Rocket 4.4 20:30:55 10° SSE 20:36:32 38° E 20:42:15 10° NNE
ATLAS 5 CENTAUR R/B 2.5 20:33:54 10° S 20:37:57 29° ESE 20:42:18 10° ENE
Cosmos 158 Rocket 4.0 20:33:07 10° NNW 20:38:13 66° ENE 20:42:53 13° SSE
Cosmos 1733 3.9 20:36:07 12° SSE 20:39:18 32° E 20:42:46 10° NNE
CZ-4B DEB 2.9 20:39:31 23° SE 20:41:10 48° ENE 20:44:11 10° N
Okean 3 Rocket 4.1 20:37:19 10° NNW 20:41:40 61° W 20:46:00 10° S
Cosmos 2297 3.7 20:36:47 10° S 20:42:22 58° ESE 20:48:00 10° NNE
Cosmos 1867 3.6 20:40:29 10° SSW 20:45:47 55° ESE 20:51:08 10° NE
Cosmos 2151 4.4 20:43:12 10° NNE 20:46:20 19° ENE 20:46:37 19° ENE
ISS -1.6 20:44:58 10° S 20:45:41 13° S 20:45:41 13° S
H-2A R/B 4.2 20:44:47 10° S 20:48:28 40° W 20:52:14 10° NNW
Spot 2 Rocket 4.3 20:44:00 10° S 20:48:59 55° W 20:54:02 10° NNW
Cosmos 2082 Rocket 2.3 20:48:33 10° NNW 20:54:17 82° WSW 20:59:16 14° SSE
Abrixas 4.1 20:52:31 10° W 20:54:51 23° SSW 20:55:43 20° S
Helios 1B rocket 2.3 20:50:58 10° NNE 20:55:07 71° ESE 20:59:13 10° S
Cosmos 1076 Rocket 3.8 20:51:19 10° NNW 20:55:33 65° W 20:59:44 10° S
Cosmos 1758 3.7 20:54:14 10° SSW 20:58:11 64° W 21:02:10 10° N
Lacrosse 5 2.4 20:54:58 10° WSW 20:59:59 59° NNW 21:05:01 10° NE
SL-14 R/B 4.0 20:59:04 10° N 21:02:34 32° ENE 21:02:34 32° ENE
USA 267 3.9 21:00:49 19° E 21:05:09 45° NNE 21:11:18 10° NW
Cosmos 1328 4.2 21:01:25 10° N 21:05:12 39° ENE 21:05:33 38° E
Cosmos 1953 3.0 21:02:10 10° SSW 21:06:11 57° WNW 21:10:12 10° N
Envisat 2.9 21:02:47 15° SSE 21:06:59 86° ENE 21:12:06 10° NNW
SPOT 5 4.0 21:05:47 27° E 21:07:00 30° ENE 21:11:35 10° N
Lacrosse 4 Rocket 4.3 21:04:46 10° W 21:07:22 16° NW 21:09:58 10° N
SWAS 4.4 21:03:28 10° SSW 21:07:42 62° ESE 21:11:59 10° NE
Cosmos 2016 Rocket 4.2 21:02:35 11° SSE 21:08:11 48° E 21:14:04 10° NNE
GP-B 3.3 21:04:53 10° S 21:09:18 73° W 21:13:46 10° N
USA 186 3.3 21:08:21 17° SW 21:09:23 23° W 21:11:16 10° NW
Cosmos 1766 Rocket 4.0 21:06:30 10° NNW 21:10:57 64° W 21:15:22 10° S
ARGOS 4.1 21:10:02 27° E 21:11:02 29° ENE 21:15:35 10° N
Helios 1A 3.7 21:07:06 10° S 21:11:10 52° W 21:15:16 10° NNW
Cosmos 1939 Rocket 2.8 21:09:38 29° SSE 21:11:40 84° ENE 21:15:52 10° NNW
H-2A R/B 3.6 21:12:13 20° ENE 21:12:38 20° ENE 21:16:23 10° NNE
Resurs 01 Rocket 3.8 21:11:33 10° SSW 21:15:12 25° W 21:18:54 10° NW
Cosmos 1271 Rocket 2.7 21:11:25 10° S 21:15:26 86° E 21:19:29 10° NNE
CZ-3 Stage 3 4.2 20:44:31 10° WSW 21:15:35 38° SSW 21:20:20 23° SSE
Cosmos 1725 Rocket 4.4 21:14:32 32° SE 21:16:22 39° E 21:22:02 10° NNE
Cosmos 1125 Rocket 3.9 21:11:32 10° SSW 21:16:42 66° WNW 21:21:56 10° NNE
Geosat 4.2 21:12:47 10° NNE 21:17:49 73° WNW 21:22:49 10° SW
Cosmos 1184 Rocket 3.0 21:18:44 10° N 21:21:45 61° NE 21:21:45 61° NE
Cosmos 2100 Rocket 4.0 21:17:45 10° S 21:24:06 88° W 21:30:32 10° N
Cosmos-2242 3.2 21:19:56 10° SSW 21:24:10 70° W 21:28:26 10° N
ERS-1 Rocket 2.9 21:23:22 40° SE 21:25:10 71° ENE 21:30:12 10° N
Terra 3.9 21:25:53 13° NE 21:25:53 13° NE 21:27:35 10° NNE
Lacrosse 5 rocket 1.1 21:22:26 10° NW 21:26:22 70° SW 21:26:41 65° S
Cosmos 1674 4.2 21:25:33 10° NNW 21:29:02 36° W 21:31:53 14° SSW
Fregat R/B Cluster 11 4.5 21:24:27 10° SW 21:29:20 61° NW 21:32:41 10° NNE
Tsikada Rocket 4.1 21:24:48 10° N 21:30:53 54° ENE 21:32:36 42° SE
YAOGAN 6 2.6 21:36:25 80° NNW 21:36:25 80° NNW 21:39:59 10° NNW
Cosmos 1743 Rocket 3.9 21:38:04 10° NNW 21:42:27 62° W 21:43:51 40° SSW
Cosmos 1500 Rocket 3.5 21:39:55 10° N 21:44:16 81° W 21:44:37 73° SSW
H-2A R/B 4.0 21:46:29 18° NNE 21:46:29 18° NNE 21:48:04 10° NNE
Cosmos 1802 Rocket 4.0 21:39:10 10° SSW 21:45:17 78° W 21:51:31 10° N
BREEZE-M DEB (TANK) 3.9 21:43:24 10° WNW 21:44:40 31° WNW 21:44:40 31° WNW
Cosmos 1356 Rocket 3.4 21:43:54 10° NNW 21:47:56 75° W 21:47:56 75° W
SL-08 RB Rocket 4.5 21:48:56 40° NE 21:48:56 40° NE 21:52:37 10° N
Cosmos 2369 Rocket 4.3 21:53:11 13° NE 21:53:11 13° NE 21:53:53 10° NE
CZ-3B DEB 3.3 21:42:42 10° W 21:50:18 40° NNW 21:52:40 22° NNE
Cosmos 2251 Rocket 3.5 21:47:20 10° NNW 21:52:41 79° WSW 21:53:39 60° S
SPOT 1/Viking Rocket 3.8 21:56:26 51° NE 21:56:26 51° NE 22:01:09 10° N
Cosmos 1626 4.1 21:58:03 10° N 21:59:34 22° N 21:59:34 22° N
Cosmos 1833 Rocket 4.4 21:57:27 10° NW 22:02:07 27° WSW 22:05:39 15° SSW
MetOp-B 4.0 22:03:35 70° S 22:04:11 82° WSW 22:09:35 10° NNW
Cosmos 1816 Rocket 4.3 21:58:49 10° N 22:05:02 81° E 22:05:52 68° SSE
NOAA 11 4.1 22:07:15 69° SSW 22:07:53 80° WSW 22:13:25 10° NNW
USA 215 3.1 22:07:27 10° NE 22:14:02 88° SE 22:20:35 10° SW
Cosmos 2058 4.1 22:14:39 10° NNW 22:17:39 42° NW 22:17:39 42° NW
MOS 1-B Rocket 4.4 22:17:32 61° SE 22:18:59 76° ENE 22:25:54 10° NNW
ATLAS 5 CENTAUR R/B 2.8 22:17:45 10° WSW 22:22:23 46° NW 22:27:28 10° NNE
Cosmos 2233 Rocket 3.9 22:23:21 72° NE 22:23:21 72° NE 22:29:01 10° N
Cosmos 2151 4.3 22:19:49 10° NNW 22:23:14 38° WNW 22:23:14 38° WNW
USA 245 4.3 22:24:27 71° SW 22:24:45 72° WSW 22:31:01 10° NNW
Lacrosse 5 3.8 22:39:33 10° WNW 22:43:49 26° NNW 22:45:24 22° NNE
SPOT 5 4.0 22:45:02 43° W 22:45:02 43° W 22:49:57 10° NNW
USA 267 3.2 22:48:09 80° W 22:48:09 80° W 22:54:28 10° NW
ARGOS 4.1 22:51:33 43° W 22:51:33 43° W 22:56:13 10° NNW
H-2A R/B 2.9 22:52:51 50° NW 22:52:51 50° NW 22:56:51 10° NNW
Terra 3.6 23:04:46 29° NNW 23:04:46 29° NNW 23:07:05 10° NNW
Cosmos 2297 Rocket 4.4 23:15:42 10° N 23:18:30 17° NNE 23:18:30 17° NNE
Cosmos 2369 Rocket 3.8 23:34:54 31° N 23:34:54 31° N 23:38:09 10° NNE
Cosmos 2227 Rocket 4.1 23:40:50 10° N 23:43:38 23° NNE 23:43:38 23° NNE
